Regional Weather Roundup
Issued by NWS

Home | Current Version | Previous Version | Text Only | Print | Product List | Glossary Off
Versions: 1 2 3 4 5 6 7 8 9 10 11 12 13 14 15 16 17 18 19 20 21 22 23 24 25 26 27 28 29 30 31 32 33 34 35 36 37 38 39 40 41 42 43 44 45 46 47 48 49 50

000
ASUS43 KDMX 161806
RWRIA

WEATHER ROUNDUP FOR IOWA
NATIONAL WEATHER SERVICE DES MOINES IA
1200 PM CST SAT DEC 16 2017

NOTE: "FAIR" INDICATES FEW OR NO CLOUDS BELOW 12,000 FEET WITH NO
SIGNIFICANT WEATHER AND/OR OBSTRUCTIONS TO VISIBILITY.

* - THESE STATIONS ARE NOT NWS STATIONS...THUS NOT UNDER NWS
QUALITY CONTROL.  THEY ALSO DO NOT REPORT WEATHER SUCH
AS PRECIPITATION OR FOG.

IAZ001>003-012>014-020>022-031>034-043>046-161900-
   NORTHWEST IOWA

CITY           SKY/WX    TMP DP  RH WIND       PRES   REMARKS
CARROLL *      CLOUDY    48  27  43 NW8       29.82S
CHEROKEE *     MOSUNNY   45  29  53 N8        29.84S
LE MARS *      CLOUDY    43  28  56 N6        29.85F
ORANGE CITY *  MOSUNNY   43  30  61 N3        29.85S
SHELDON *      MOSUNNY   39  30  70 CALM      29.83S
SIOUX CITY     CLOUDY    42  29  59 NW12      29.86R
6HR MIN TEMP:  21; 6HR MAX TEMP:  42;

SPENCER        MOSUNNY   44  29  55 N7        29.84F
6HR MIN TEMP:  22; 6HR MAX TEMP:  45;

STORM LAKE *   MOSUNNY   46  28  49 N12       29.82S
$$

IAZ055>058-069>071-079>083-090>094-161900-
   SOUTHWEST IOWA

CITY           SKY/WX    TMP DP  RH WIND       PRES   REMARKS
ATLANTIC *     SUNNY     46  27  46 CALM      29.84R
AUDUBON *      CLOUDY    48  27  43 CALM      29.84R
CLARINDA *     SUNNY     48  27  43 SW6         N/A
COUNCIL BLFS * MOSUNNY   48  25  40 NW7       29.85S
CRESTON *      SUNNY     48  25  40 SW7       29.84S
HARLAN  *      MOSUNNY   48  27  43 VRB3      29.87S
LAMONI         SUNNY     47  26  44 SW10      29.85S
6HR MIN TEMP:  31; 6HR MAX TEMP:  47;

RED OAK *      SUNNY     48  27  43 W5        29.85R
SHENANDOAH *   SUNNY     48  25  40 W6        29.86R
$$

IAZ047>049-059>061-072>074-084-161900-
   CENTRAL IOWA

CITY           SKY/WX    TMP DP  RH WIND       PRES   REMARKS
AMES           SUNNY     47  27  45 W6        29.82S
6HR MIN TEMP:  25; 6HR MAX TEMP:  48;

ANKENY *       SUNNY     46  25  42 CALM      29.83F
BOONE *        SUNNY     46  27  46 NW6       29.81S
CHARITON *     SUNNY     48  27  43 SW9G16    29.84S
DES MOINES     PTSUNNY   48  25  40 W3        29.83F
6HR MIN TEMP:  34; 6HR MAX TEMP:  48;

GRINNELL*      SUNNY     46  27  47 W5        29.85R
KNOXVILLE *    SUNNY     48  25  40 VRB6G12   29.83S
MARSHALLTOWN   SUNNY     48  27  44 S5        29.82R
6HR MIN TEMP:  27; 6HR MAX TEMP:  48;

NEWTON *       SUNNY     46  27  46 SW5       29.83S
PELLA *        SUNNY     48  25  40 W7        29.86S
PERRY *          N/A     48  22  36 NW5       29.83R
$$

IAZ004>006-015-016-023>025-035-036-161900-
   NORTH CENTRAL IOWA

CITY           SKY/WX    TMP DP  RH WIND       PRES   REMARKS
ALGONA *       MOSUNNY   46  32  57 VRB8      29.83S
CLARION *      MOSUNNY   41  28  60 N6        29.82R
ESTHERVILLE    SUNNY     41  30  65 N10       29.83R
6HR MIN TEMP:  25; 6HR MAX TEMP:  41;

FORT DODGE *   SUNNY     44  28  53 N8        29.82S
MASON CITY     MOSUNNY   44  28  53 NW5       29.83S
6HR MIN TEMP:  26; 6HR MAX TEMP:  44;

FOREST CITY *    N/A     43  30  61 N7        29.82S
WEBSTER CITY * SUNNY     46  28  49 N10       29.80S
IOWA FALLS *     N/A     49  30  47 NW7       29.82R
$$

IAZ007>011-017>019-026>030-037>042-050>054-066-161900-
   NORTHEAST IOWA

CITY           SKY/WX    TMP DP  RH WIND       PRES   REMARKS
CEDAR RAPIDS   SUNNY     46  26  45 SW6       29.83S
6HR MIN TEMP:  25; 6HR MAX TEMP:  47;

CHARLES CITY * SUNNY     41  27  56 VRB5      29.82S
CLINTON *      SUNNY     46  27  47 W8        29.86F
DECORAH *      CLOUDY    37  27  65 NE5       29.82S WCI  34
DUBUQUE        SUNNY     42  26  53 CALM      29.84S
6HR MIN TEMP:  25; 6HR MAX TEMP:  42;

MONTICELLO *   SUNNY     45  27  49 CALM      29.84R
OELWEIN *      SUNNY     43  27  52 VRB3      29.82S
WATERLOO       MOSUNNY   47  25  42 VRB5      29.82S
6HR MIN TEMP:  23; 6HR MAX TEMP:  47;

$$

IAZ064-065-067-068-078-161900-
   EAST CENTRAL IOWA

CITY           SKY/WX    TMP DP  RH WIND       PRES   REMARKS
DAVENPORT      SUNNY     46  26  45 W10       29.88S
6HR MIN TEMP:  32; 6HR MAX TEMP:  47;

IOWA CITY      SUNNY     48  27  44 W7        29.87R
6HR MIN TEMP:  25; 6HR MAX TEMP:  48;

MT. PLEASANT * SUNNY     49  25  39 SW13      29.87S
MUSCATINE *    SUNNY     48  25  40 SW10G21   29.87F
$$

IAZ062-063-075>077-085>089-095>099-161900-
   SOUTHEAST IOWA

CITY           SKY/WX    TMP DP  RH WIND       PRES   REMARKS
BURLINGTON     SUNNY     48  28  46 SW10      29.87F
6HR MIN TEMP:  31; 6HR MAX TEMP:  48;

FAIRFIELD *    SUNNY     50  25  37 SW12      29.85F
FORT MADISON * SUNNY     50  27  40 SW13      29.88F
KEOKUK *       SUNNY     50  27  40 SW15      29.88S
OSKALOOSA *      N/A     49  27  41 SW8       29.85S
OTTUMWA        SUNNY     50  25  37 W9        29.85S
6HR MIN TEMP:  37; 6HR MAX TEMP:  50;

WASHINGTON *   SUNNY     48  27  43 W12       29.87S
$$

ABBREVIATIONS USED IN REMARKS
   TC - TEMPERATURES IN CELSIUS
  WCI - WIND CHILL INDEX
   HX - HEAT INDEX
  VSB - VISIBILITY
$$





USA.gov is the U.S. government's official web portal to all federal, state and local government web resources and services.